SB KEPS @ AMSAT $ORB06243.N 2Line Orbital Elements 06243.AMSAT
HR AMSAT ORBITAL ELEMENTS FOR AMATEUR SATELLITES IN NASA FORMAT FROM WA5QGD FORT WORTH,TX August 31, 2006 Subscribe/unsubscribe to KEPS at http://www.amsat.org/mailman/listinfo/keps BID: ORB06243.N
DECODE 2-LINE ELSETS WITH THE FOLLOWING KEY: 1 AAAAAU 00 0 0 BBBBB.BBBBBBBB .CCCCCCCC 00000-0 00000-0 0 DDDZ 2 AAAAA EEE.EEEE FFF.FFFF GGGGGGG HHH.HHHH III.IIII JJ.JJJJJJJJKKKKKZ KEY: A-CATALOGNUM B-EPOCHTIME C-DECAY D-ELSETNUM E-INCLINATION F-RAAN G-ECCENTRICITY H-ARGPERIGEE I-MNANOM J-MNMOTION K-ORBITNUM Z-CHECKSUM
TO ALL RADIO AMATEURS BT
AO-07 1 07530U 74089B 06242.80562893 -.00000028 00000-0 10000-3 0 6686 2 07530 101.5626 283.8557 0012220 101.5416 258.7031 12.53571531454733 AO-10 1 14129U 83058B 06240.17287781 -.00000125 00000-0 10000-3 0 03081 2 14129 027.3414 318.4502 6030831 312.9332 010.3390 02.05865176174533 UO-11 1 14781U 84021B 06242.71651377 -.00000176 00000-0 -16181-4 0 1615 2 14781 098.2070 254.5173 0009820 031.3727 328.8054 14.79453964206783 RS-10/11 1 18129U 87054A 06242.60152103 .00000045 00000-0 32443-4 0 00841 2 18129 082.9237 273.1115 0010126 245.3510 114.6588 13.72778040961361 RS-15 1 23439U 94085A 06242.96054546 -.00000039 00000-0 10597-3 0 09965 2 23439 064.8169 116.2947 0166607 241.1875 117.2232 11.27551981480977 FO-29 1 24278U 96046B 06242.93829525 .00000015 00000-0 47801-4 0 03203 2 24278 098.5150 237.1394 0351330 115.7724 248.0111 13.52923633495657 SO-33 1 25509U 98061B 06242.82244105 .00000034 00000-0 -35181-5 0 07343 2 25509 031.4323 067.3597 0354997 048.8940 314.1778 14.28113951409713 AO-40 1 26609U 00072B 06242.91088851 .00000000 00000-0 10000-3 0 7730 2 26609 005.9231 223.1109 7963446 196.6962 098.0341 01.25583088 26790 VO-52 1 28650U 05017B 06242.63624647 .00000384 00000-0 55880-4 0 04176 2 28650 097.8668 314.3321 0028399 118.5799 241.8303 14.81163848071402 AO-16 1 20439U 90005D 06242.57813919 .00000004 00000-0 16479-4 0 08331 2 20439 098.1883 248.3418 0010915 338.6015 021.4704 14.31731220866966 WO-18 1 20441U 90005F 06243.60913647 .00000009 00000-0 18575-4 0 323 2 20441 098.1871 253.9386 0011446 335.5228 024.5407 14.31801378867174 LO-19 1 20442U 90005G 06243.64377507 -.00000010 00000-0 11334-4 0 7693 2 20442 098.1876 258.8607 0011793 334.5882 025.4724 14.31974132867250 UO-22 1 21575U 91050B 06242.69945711 .00000014 00000-0 18085-4 0 07877 2 21575 098.3029 198.0870 0006761 200.8457 159.2444 14.39560097793734 KO-23 1 22077U 92052B 06242.69501942 -.00000037 00000-0 10000-3 0 8855 2 22077 066.0879 306.0096 0005276 338.2541 021.8252 12.86437721660122 AO-27 1 22825U 93061C 06242.44818090 -.00000018 00000-0 89506-5 0 4848 2 22825 098.2896 220.6574 0009375 045.2267 314.9689 14.29181733673969 IO-26 1 22826U 93061D 06242.68532004 .00000000 00000-0 16175-4 0 1762 2 22826 098.2842 222.0657 0009803 042.8467 317.3468 14.29425834674078 PO-28 1 22829U 93061G 06242.64300738 -.00000057 00000-0 -61517-5 0 4597 2 22829 098.2743 223.2244 0010220 019.4034 340.7524 14.30120621674285 TO-31 1 25396U 98043C 06242.72911611 -.00000169 00000-0 -55493-4 0 6110 2 25396 098.4715 300.3798 0002438 001.5057 358.6119 14.23710740422950 GO-32 1 25397U 98043D 06242.78704924 -.00000115 00000-0 -32237-4 0 974 2 25397 098.4602 297.0171 0001464 035.5725 324.5532 14.23109374422855 UO-36 1 25693U 99021A 06242.77375152 -.00000121 00000-0 30459-5 0 1271 2 25693 064.5604 013.6182 0026458 323.1174 036.8110 14.78611263396814 MO-46 1 26548U 00057D 06242.76002229 .00000137 00000-0 34909-4 0 05849 2 26548 064.5602 001.0773 0044494 236.5200 123.1656 14.83009174320478 NO-44 1 26931U 01043C 06242.79577121 -.00000009 00000-0 28707-4 0 03905 2 26931 067.0525 175.5026 0005879 252.2027 107.8430 14.29450264256590 SO-50 1 27607U 02058C 06242.46455216 -.00000010 00000-0 20160-4 0 1081 2 27607 064.5558 247.6160 0036667 117.3948 243.0889 14.71166287198357 CO-57 1 27848U 03031J 06242.53133348 .00000065 00000-0 50881-4 0 08042 2 27848 098.7192 249.1001 0009334 208.9080 151.1580 14.20281084164192 AO-51 1 28375U 04025K 06242.67633046 .00000005 00000-0 14628-4 0 6161 2 28375 098.1581 291.2918 0084665 342.9469 016.8881 14.40530671113881 XO-53 1 28894U 05043E 06242.69745403 .00000047 00000-0 19767-4 0 06414 2 28894 098.1560 139.8034 0016956 304.0284 055.9309 14.59502089044842 CO-56 1 28941U 06005C 06242.97644674 .00013002 24570-5 16672-3 0 01981 2 28941 098.1735 268.9202 0272072 210.6448 147.8656 15.27087787028956 NOAA-10 1 16969U 86073A 06243.43407015 -.00000022 00000-0 94350-5 0 3304 2 16969 098.7595 255.2282 0011698 294.2685 065.7284 14.27302264 37893 NOAA-11 1 19531U 88089A 06243.32397632 -.00000214 00000-0 -87951-4 0 2640 2 19531 098.8252 330.9266 0012193 133.0728 227.1486 14.14814648925168 NOAA-12 1 21263U 91032A 06243.20964070 .00000128 00000-0 72987-4 0 7561 2 21263 098.7358 236.1950 0011952 228.4373 131.5771 14.25506659794939 MET-3/5 1 21655U 91056A 06242.96823435 .00000051 00000-0 10000-3 0 01682 2 21655 082.5538 207.9514 0012207 209.5539 150.4894 13.17007185723203 MET-2/21 1 22782U 93055A 06242.66185302 -.00000018 00000-0 -29834-4 0 06020 2 22782 082.5444 272.3713 0021623 335.1772 024.8342 13.83609593656341 OKEAN-4 1 23317U 94066A 06242.73922903 .00000206 00000-0 22592-4 0 00386 2 23317 082.5396 207.4601 0023598 126.4371 233.9046 14.82390414641028 NOAA-14 1 23455U 94089A 06243.18135152 -.00000167 00000-0 -64226-4 0 2566 2 23455 099.0311 302.2320 0009186 194.7594 165.3329 14.13678559601666 SICH-1 1 23657U 95046A 06243.72959949 .00000201 00000-0 22538-4 0 8419 2 23657 082.5319 347.4459 0025543 113.1954 247.1985 14.81384902593173 NOAA-15 1 25338U 98030A 06243.17566345 .00000173 00000-0 92845-4 0 6443 2 25338 098.5200 243.2450 0010984 150.7146 209.4665 14.24600727431398 RESURS 1 25394U 98043A 06242.75938200 .00000005 00000-0 20387-4 0 04539 2 25394 098.4884 303.1123 0001292 355.6425 004.4743 14.24110355423011 FENGYUN1 1 25730U 99025A 06242.60680948 .00000115 00000-0 86004-4 0 08131 2 25730 098.6310 232.3553 0013754 290.8434 069.1263 14.11814782376515 OKEAN-0 1 25860U 99039A 06243.72971409 .00000034 00000-0 12435-4 0 8394 2 25860 097.7332 254.5425 0000655 106.6845 253.4430 14.73384803382877 NOAA-16 1 26536U 00055A 06243.16804884 .00000266 00000-0 16939-3 0 240 2 26536 099.0735 210.6935 0009735 271.1094 088.8941 14.12366615306160 NOAA-17 1 27453U 02032A 06243.22447804 .00000230 00000-0 11929-3 0 434 2 27453 098.6152 313.9621 0011404 213.3315 146.7158 14.23806086217456 NOAA-18 1 28654U 05018A 06242.87798583 .00000065 00000-0 60305-4 0 06174 2 28654 098.7902 184.5686 0014862 013.1706 346.9826 14.10987031065912 HUBBLE 1 20580U 90037B 06242.54605249 .00000389 00000-0 17467-4 0 6876 2 20580 028.4700 285.1386 0003658 249.2177 110.8024 15.00083480696270 UARS 1 21701U 91063B 06242.96310641 .00006414 00000-0 12153-3 0 08724 2 21701 056.9755 129.9855 0100784 356.6487 003.3878 15.44409916820853 PO-34 1 25520U 98064B 06242.50367611 .00000528 00000-0 16432-4 0 05636 2 25520 028.4619 253.9497 0005102 327.8567 032.1719 15.16774933433347 ISS 1 25544U 98067A 06243.81789068 .00012796 00000-0 86237-4 0 5904 2 25544 051.6315 157.8145 0011076 286.6600 144.6243 15.75485411445094 OO-38 1 26063U 00004C 06242.50963779 -.00000019 00000-0 13662-4 0 07071 2 26063 100.1892 186.9360 0036548 258.1633 101.5447 14.35775050345345 NO-45 1 26932U 01043D 06242.94642732 -.00000061 00000-0 85887-5 0 04120 2 26932 067.0553 174.8307 0007397 241.3811 118.6544 14.29532977256658 UWE-1 1 28892U 05043C 06242.72482262 .00000177 00000-0 47143-4 0 05408 2 28892 098.1529 139.7036 0016862 302.1660 057.7901 14.59388665044849 CO-58 1 28895U 05043F 06242.71333312 .00000152 00000-0 41777-4 0 05243 2 28895 098.1556 139.7989 0017208 301.9347 058.0188 14.59439194044725 NCUBE2 1 28897U 05043H 06242.68268432 .00000135 00000-0 38171-4 0 01130 2 28897 098.1536 139.7488 0016797 303.9213 056.0379 14.59595308036995 /EX